Location: Berkeley
(37.8716°N, 122.2727°W)
Time: 08:51:46
(UTC-07:00)

ISS - Visible Passes

Search period start: 23 August 2017 00:00
Search period end: 02 September 2017 00:00
Orbit: 401 x 408 km, 51.6° (Epoch: 24 August)

Date Brightness Start Highest point End Pass type
(mag) Time Alt. Az. Time Alt. Az. Time Alt. Az.
29 Aug -0.8 05:54:15 10° SSE 05:55:22 11° SE 05:56:28 10° ESE visible
31 Aug -2.1 05:43:56 10° SSW 05:46:49 28° SE 05:49:42 10° ENE visible
01 Sep -1.3 04:53:35 13° SSE 04:54:37 14° SE 04:56:30 10° E visible
